TimeMDT,TemperatureF,Dew PointF,Humidity,Sea Level PressureIn,VisibilityMPH,Wind Direction,Wind SpeedMPH,Gust SpeedMPH,PrecipitationIn,Events,Conditions,WindDirDegrees,DateUTC
12:35 AM,46.4,30.2,53,29.97,10.0,Calm,Calm,-,N/A,,Mostly Cloudy,0,2012-10-13 06:35:00
12:55 AM,44.6,30.2,57,29.98,10.0,North,8.1,-,N/A,,Overcast,360,2012-10-13 06:55:00
1:15 AM,46.4,30.2,53,29.97,10.0,East,6.9,-,N/A,,Overcast,90,2012-10-13 07:15:00
1:35 AM,44.6,30.2,57,29.98,10.0,East,4.6,-,N/A,,Scattered Clouds,100,2012-10-13 07:35:00
1:55 AM,46.4,30.2,53,29.98,10.0,SW,5.8,-,N/A,,Scattered Clouds,230,2012-10-13 07:55:00
2:15 AM,44.6,33.8,66,29.99,10.0,SW,4.6,-,N/A,,Partly Cloudy,220,2012-10-13 08:15:00
2:35 AM,44.6,35.6,71,29.98,10.0,SW,9.2,-,N/A,,Clear,220,2012-10-13 08:35:00
2:55 AM,44.6,35.6,71,29.99,10.0,SSW,8.1,-,N/A,,Clear,210,2012-10-13 08:55:00
3:15 AM,42.8,35.6,76,29.99,10.0,Calm,Calm,-,N/A,,Clear,0,2012-10-13 09:15:00
3:35 AM,42.8,35.6,76,30.00,10.0,Calm,Calm,-,N/A,,Clear,0,2012-10-13 09:35:00
3:55 AM,42.8,35.6,76,30.00,10.0,East,3.5,-,N/A,,Clear,90,2012-10-13 09:55:00
4:15 AM,37.4,30.2,75,30.01,10.0,North,4.6,-,N/A,,Clear,10,2012-10-13 10:15:00
4:55 AM,33.8,28.4,81,30.02,10.0,North,6.9,-,N/A,,Clear,10,2012-10-13 10:55:00
5:15 AM,33.8,28.4,81,30.03,10.0,North,6.9,-,N/A,,Clear,10,2012-10-13 11:15:00
5:35 AM,33.8,30.2,87,30.03,10.0,North,6.9,-,N/A,,Clear,10,2012-10-13 11:35:00
5:55 AM,33.8,28.4,81,30.04,10.0,NNE,6.9,-,N/A,,Clear,20,2012-10-13 11:55:00
6:15 AM,32.0,28.4,87,30.04,10.0,North,9.2,-,N/A,,Clear,360,2012-10-13 12:15:00
6:35 AM,33.8,28.4,81,30.05,10.0,NNE,4.6,-,N/A,,Clear,30,2012-10-13 12:35:00
6:53 AM,32.0,28.4,87,30.07,10.0,Variable,3.5,-,N/A,,Scattered Clouds,0,2012-10-13 12:53:00
7:55 AM,33.8,28.4,81,30.09,10.0,Calm,Calm,-,N/A,,Scattered Clouds,0,2012-10-13 13:55:00
8:51 AM,37.4,33.8,87,30.11,10.0,Calm,Calm,-,N/A,,Mostly Cloudy,0,2012-10-13 14:51:00
9:51 AM,46.4,35.6,66,30.12,10.0,Calm,Calm,-,N/A,,Scattered Clouds,0,2012-10-13 15:51:00
10:52 AM,53.6,33.8,47,30.13,10.0,South,15.0,-,N/A,,Scattered Clouds,170,2012-10-13 16:52:00
11:51 AM,53.6,33.8,47,30.14,10.0,West,11.5,23.0,N/A,,Mostly Cloudy,260,2012-10-13 17:51:00
12:53 PM,51.8,33.8,50,30.15,10.0,SW,17.3,23.0,N/A,,Mostly Cloudy,230,2012-10-13 18:53:00
1:52 PM,53.6,33.8,47,30.15,10.0,WSW,8.1,18.4,N/A,,Overcast,240,2012-10-13 19:52:00
2:51 PM,51.8,33.8,50,30.17,10.0,SSW,8.1,-,N/A,,Mostly Cloudy,210,2012-10-13 20:51:00
3:51 PM,51.8,37.4,58,30.19,10.0,WSW,4.6,-,N/A,,Mostly Cloudy,240,2012-10-13 21:51:00
4:51 PM,51.8,35.6,54,30.19,10.0,SW,8.1,-,N/A,,Mostly Cloudy,230,2012-10-13 22:51:00
5:51 PM,51.8,33.8,50,30.20,10.0,Calm,Calm,-,N/A,,Mostly Cloudy,0,2012-10-13 23:51:00
6:51 PM,51.8,33.8,50,30.21,10.0,SW,4.6,-,N/A,,Mostly Cloudy,230,2012-10-14 00:51:00
7:51 PM,50.0,35.6,58,30.22,10.0,South,8.1,-,N/A,,Mostly Cloudy,170,2012-10-14 01:51:00
8:51 PM,50.0,35.6,58,30.24,10.0,Calm,Calm,-,N/A,,Mostly Cloudy,0,2012-10-14 02:51:00
8:55 PM,50.0,35.6,58,30.24,10.0,Calm,Calm,-,N/A,,Overcast,0,2012-10-14 02:55:00
9:15 PM,48.2,35.6,62,30.26,10.0,South,4.6,-,N/A,,Overcast,180,2012-10-14 03:15:00
9:35 PM,50.0,35.6,58,30.27,10.0,SW,5.8,-,N/A,,Overcast,230,2012-10-14 03:35:00
10:15 PM,48.2,39.2,71,30.28,10.0,Calm,Calm,-,N/A,,Overcast,0,2012-10-14 04:15:00
10:35 PM,48.2,41.0,76,30.29,10.0,SSW,5.8,-,N/A,,Overcast,200,2012-10-14 04:35:00
10:55 PM,46.4,41.0,81,30.29,10.0,SSW,9.2,-,N/A,,Overcast,200,2012-10-14 04:55:00
11:35 PM,48.2,39.2,71,30.27,10.0,SW,10.4,-,N/A,,Overcast,220,2012-10-14 05:35:00
11:55 PM,46.4,39.2,76,30.26,10.0,SW,6.9,-,N/A,,Overcast,230,2012-10-14 05:55:00